FW0428 Weather Reports


Display with metric or nautical units.
time (UTC)temp
F
wind
direction
speed
MPH
gust
MPH
rain 1hr
in
rain 24hr
in
rain mn
in
humidity
%
barometer
mb
20210805103110 72 123 0.0 1.0 0.00 0.00 0.00 86 1016.8
20210805093008 72 126 0.0 0.0 0.00 0.00 0.00 86 1016.4
20210805083104 73 129 0.0 1.0 0.00 0.00 0.00 84 1016.3
20210805081506 73 131 0.0 1.0 0.00 0.00 0.00 84 1016.2
20210805073121 73 94 0.0 0.0 0.00 0.00 0.00 85 1016.5
20210805071536 73 94 0.0 0.0 0.00 0.00 0.00 84 1016.5
20210805070015 73 94 0.0 0.0 0.00 0.00 0.00 84 1016.4
20210805064622 74 94 0.0 0.0 0.00 0.00 0.00 83 1016.6
20210805063006 74 94 0.0 0.0 0.00 0.00 0.00 82 1016.7
20210805061748 74 94 0.0 0.0 0.00 0.00 0.00 82 1016.6
20210805060020 75 94 0.0 0.0 0.00 0.00 0.00 81 1016.6
20210805054612 75 94 0.0 0.0 0.00 0.00 0.00 80 1016.5
20210805053015 76 94 0.0 1.0 0.00 0.00 0.00 79 1016.5
20210805051645 76 81 0.0 1.0 0.00 0.00 0.00 78 1016.5
20210805040040 77 81 0.0 1.0 0.00 0.00 0.00 77 1016.2
20210805030055 79 117 0.0 1.0 0.00 0.00 0.00 74 1015.8
20210805010128 83 96 0.0 2.0 0.00 0.00 0.00 62 1014.8
20210805004548 84 136 0.0 2.0 0.00 0.00 0.00 61 1014.6
20210805000122 85 158 0.0 2.0 0.00 0.00 0.00 57 1014.3
20210804223018 86 106 0.0 2.0 0.00 0.00 0.00 58 1014.6
20210804214611 87 82 1.0 4.0 0.00 0.00 0.00 55 1014.6
20210804184654 86 150 0.0 4.0 0.00 0.00 0.00 60 1016.1
20210804183025 85 74 0.0 5.0 0.00 0.00 0.00 61 1016.2
20210804171713 83 67 0.0 3.0 0.00 0.00 0.00 66 1016.4
20210804161506 82 142 1.0 3.0 0.00 0.00 0.00 69 1016.4
20210804160343 82 82 1.0 5.0 0.00 0.00 0.00 69 1016.4
20210804150133 79 162 0.0 2.0 0.00 0.00 0.00 76 1016.4
20210804143018 77 127 1.0 3.0 0.00 0.00 0.00 79 1016.2